| time (UTC) | temp C | wind direction | speed KPH | gust KPH | rain 1hr cm | rain 24hr cm | rain mn cm | humidity % | barometer mb |
| 20260903090024 | 24 | 354 | 0.0 | 3.2 | 0.00 | 0.23 | 0.00 | 93 | 1013.8 |
| 20260903084522 | 24 | 354 | 0.0 | 0.0 | 0.00 | 0.23 | 0.00 | 92 | 1013.8 |
| 20260903083021 | 24 | 354 | 0.0 | 0.0 | 0.00 | 0.23 | 0.00 | 93 | 1013.7 |
| 20260903081518 | 24 | 354 | 0.0 | 0.0 | 0.00 | 0.23 | 0.00 | 92 | 1013.8 |
| 20260903080018 | 24 | 354 | 0.0 | 0.0 | 0.00 | 0.23 | 0.00 | 92 | 1013.7 |
| 20260903074516 | 24 | 354 | 0.0 | 0.0 | 0.00 | 0.23 | 0.00 | 92 | 1013.7 |
| 20260903073028 | 25 | 354 | 0.0 | 0.0 | 0.00 | 0.23 | 0.00 | 92 | 1013.6 |
| 20260903071523 | 25 | 354 | 0.0 | 0.0 | 0.00 | 0.23 | 0.00 | 92 | 1013.5 |
| 20260903070014 | 25 | 354 | 0.0 | 1.6 | 0.00 | 0.23 | 0.00 | 92 | 1013.5 |
| 20260903064511 | 25 | 354 | 0.0 | 1.6 | 0.00 | 0.23 | 0.00 | 92 | 1013.5 |
| 20260903063012 | 24 | 354 | 0.0 | 0.0 | 0.00 | 0.23 | 0.00 | 92 | 1013.5 |
| 20260903061509 | 24 | 354 | 0.0 | 3.2 | 0.00 | 0.23 | 0.00 | 91 | 1013.4 |
| 20260903060109 | 24 | 79 | 0.0 | 0.0 | 0.00 | 0.23 | 0.00 | 90 | 1013.5 |
| 20260903054507 | 24 | 79 | 0.0 | 0.0 | 0.00 | 0.23 | 0.00 | 90 | 1013.5 |
| 20260903053009 | 24 | 79 | 0.0 | 0.0 | 0.00 | 0.23 | 0.00 | 90 | 1013.4 |
| 20260903051504 | 24 | 79 | 0.0 | 0.0 | 0.00 | 0.23 | 0.00 | 89 | 1013.5 |
| 20260903050002 | 24 | 79 | 0.0 | 0.0 | 0.00 | 0.23 | 0.23 | 89 | 1013.4 |
| 20260903044501 | 25 | 79 | 0.0 | 0.0 | 0.00 | 0.23 | 0.23 | 89 | 1013.4 |
| 20260903043004 | 25 | 79 | 0.0 | 0.0 | 0.00 | 0.23 | 0.23 | 89 | 1013.5 |
| 20260903041607 | 25 | 79 | 0.0 | 0.0 | 0.00 | 0.23 | 0.23 | 89 | 1013.7 |
| 20260903034600 | 25 | 79 | 0.0 | 0.0 | 0.00 | 0.23 | 0.23 | 88 | 1013.9 |
| 20260903033059 | 25 | 79 | 0.0 | 0.0 | 0.00 | 0.23 | 0.23 | 88 | 1014.1 |
| 20260903031602 | 26 | 79 | 0.0 | 0.0 | 0.00 | 0.23 | 0.23 | 88 | 1014.2 |
| 20260903030058 | 26 | 79 | 0.0 | 0.0 | 0.00 | 0.23 | 0.23 | 88 | 1014.1 |
| 20260903024604 | 26 | 79 | 0.0 | 0.0 | 0.00 | 0.23 | 0.23 | 88 | 1014.0 |
| 20260903023057 | 26 | 79 | 0.0 | 0.0 | 0.00 | 0.23 | 0.23 | 88 | 1013.7 |
| 20260903021556 | 26 | 79 | 0.0 | 0.0 | 0.00 | 0.23 | 0.23 | 87 | 1013.6 |
| 20260903020055 | 27 | 79 | 0.0 | 3.2 | 0.00 | 0.23 | 0.23 | 87 | 1013.3 |
| 20260903014556 | 27 | 36 | 0.0 | 1.6 | 0.00 | 0.23 | 0.23 | 86 | 1013.4 |
| 20260903013106 | 27 | 36 | 0.0 | 1.6 | 0.00 | 0.23 | 0.23 | 86 | 1013.2 |
| 20260903011553 | 27 | 35 | 0.0 | 0.0 | 0.00 | 0.23 | 0.23 | 85 | 1013.1 |
| 20260903010053 | 28 | 278 | 0.0 | 3.2 | 0.00 | 0.23 | 0.23 | 83 | 1013.2 |
| 20260903004550 | 28 | 226 | 0.0 | 3.2 | 0.00 | 0.23 | 0.23 | 82 | 1013.3 |
| 20260903003050 | 28 | 86 | 0.0 | 9.7 | 0.00 | 0.23 | 0.23 | 81 | 1013.3 |
| 20260903001550 | 29 | 88 | 0.0 | 9.7 | 0.00 | 0.23 | 0.23 | 79 | 1013.4 |
| 20260903000049 | 30 | 73 | 0.0 | 9.7 | 0.00 | 0.23 | 0.23 | 78 | 1013.4 |
| 20260902234606 | 30 | 100 | 0.0 | 8.0 | 0.00 | 0.23 | 0.23 | 78 | 1013.3 |
| 20260902233048 | 30 | 176 | 0.0 | 6.4 | 0.00 | 0.23 | 0.23 | 77 | 1013.4 |
| 20260902231549 | 30 | 243 | 1.6 | 6.4 | 0.00 | 0.23 | 0.23 | 76 | 1013.3 |
| 20260902230050 | 30 | 81 | 0.0 | 3.2 | 0.00 | 0.23 | 0.23 | 76 | 1013.2 |
| 20260902224606 | 30 | 174 | 0.0 | 1.6 | 0.00 | 0.23 | 0.23 | 75 | 1013.0 |
| 20260902223047 | 30 | 118 | 0.0 | 9.7 | 0.00 | 0.23 | 0.23 | 76 | 1013.0 |
| 20260902221545 | 30 | 103 | 3.2 | 9.7 | 0.00 | 0.23 | 0.23 | 74 | 1013.0 |
| 20260902220048 | 31 | 91 | 0.0 | 11.3 | 0.00 | 0.23 | 0.23 | 74 | 1013.3 |
| 20260902214540 | 31 | 56 | 3.2 | 9.7 | 0.00 | 0.23 | 0.23 | 69 | 1013.4 |
| 20260902213041 | 32 | 188 | 1.6 | 11.3 | 0.00 | 0.23 | 0.23 | 69 | 1013.3 |
| 20260902211537 | 32 | 82 | 3.2 | 11.3 | 0.00 | 0.23 | 0.23 | 67 | 1013.3 |
| 20260902210032 | 32 | 93 | 4.8 | 12.9 | 0.00 | 0.23 | 0.23 | 68 | 1013.5 |
| 20260902204530 | 31 | 75 | 4.8 | 14.5 | 0.00 | 0.23 | 0.23 | 70 | 1014.1 |
| 20260902203029 | 31 | 83 | 1.6 | 11.3 | 0.00 | 0.23 | 0.23 | 69 | 1014.5 |
| 20260902201526 | 31 | 63 | 0.0 | 3.2 | 0.00 | 0.23 | 0.23 | 70 | 1014.6 |
| 20260902200046 | 31 | 280 | 0.0 | 3.2 | 0.00 | 0.23 | 0.23 | 69 | 1014.6 |
| 20260902194527 | 31 | 210 | 0.0 | 3.2 | 0.00 | 0.23 | 0.23 | 70 | 1014.7 |
| 20260902193024 | 31 | 100 | 0.0 | 3.2 | 0.00 | 0.23 | 0.23 | 72 | 1014.9 |
| 20260902191527 | 31 | 70 | 0.0 | 3.2 | 0.00 | 0.23 | 0.23 | 72 | 1014.8 |
| 20260902190042 | 31 | 224 | 0.0 | 3.2 | 0.00 | 0.23 | 0.23 | 72 | 1014.8 |
| 20260902184522 | 31 | 233 | 0.0 | 3.2 | 0.00 | 0.23 | 0.23 | 74 | 1014.6 |
| 20260902183022 | 30 | 116 | 0.0 | 3.2 | 0.10 | 0.23 | 0.23 | 77 | 1014.7 |
| 20260902181524 | 30 | 182 | 0.0 | 3.2 | 0.23 | 0.23 | 0.23 | 81 | 1014.8 |
| 20260902180020 | 28 | 41 | 0.0 | 3.2 | 0.23 | 0.23 | 0.23 | 87 | 1015.0 |
| 20260902174520 | 27 | 187 | 0.0 | 0.0 | 0.23 | 0.23 | 0.23 | 91 | 1015.6 |
| 20260902173020 | 27 | 197 | 0.0 | 3.2 | 0.13 | 0.13 | 0.13 | 84 | 1016.0 |
| 20260902171518 | 28 | 183 | 0.0 | 6.4 | 0.00 | 0.00 | 0.00 | 74 | 1016.1 |
| 20260902170016 | 30 | 181 | 0.0 | 8.0 | 0.00 | 0.00 | 0.00 | 71 | 1015.8 |
| 20260902164516 | 31 | 12 | 3.2 | 19.3 | 0.00 | 0.00 | 0.00 | 74 | 1015.7 |
| 20260902163014 | 31 | 70 | 0.0 | 11.3 | 0.00 | 0.00 | 0.00 | 73 | 1015.8 |
| 20260902161512 | 31 | 70 | 0.0 | 6.4 | 0.00 | 0.00 | 0.00 | 74 | 1016.0 |
| 20260902160015 | 31 | 265 | 0.0 | 1.6 | 0.00 | 0.00 | 0.00 | 76 | 1016.2 |
| 20260902154508 | 30 | 97 | 3.2 | 12.9 | 0.00 | 0.00 | 0.00 | 77 | 1016.1 |
| 20260902153006 | 30 | 79 | 0.0 | 4.8 | 0.00 | 0.00 | 0.00 | 79 | 1015.9 |
| 20260902151501 | 29 | 77 | 3.2 | 8.0 | 0.00 | 0.00 | 0.00 | 82 | 1015.8 |
| 20260902150100 | 28 | 158 | 1.6 | 11.3 | 0.00 | 0.00 | 0.00 | 82 | 1015.8 |
| 20260902144558 | 28 | 97 | 1.6 | 9.7 | 0.00 | 0.00 | 0.00 | 83 | 1015.8 |
| 20260902143056 | 28 | 70 | 3.2 | 12.9 | 0.00 | 0.00 | 0.00 | 83 | 1015.7 |
| 20260902141559 | 28 | 79 | 1.6 | 6.4 | 0.00 | 0.00 | 0.00 | 84 | 1015.6 |
| 20260902140052 | 27 | 76 | 1.6 | 16.1 | 0.00 | 0.00 | 0.00 | 85 | 1015.4 |
| 20260902134550 | 27 | 23 | 0.0 | 6.4 | 0.00 | 0.00 | 0.00 | 86 | 1015.4 |
| 20260902133050 | 27 | 97 | 0.0 | 8.0 | 0.00 | 0.00 | 0.00 | 87 | 1015.3 |
| 20260902131543 | 26 | 148 | 0.0 | 8.0 | 0.00 | 0.00 | 0.00 | 90 | 1015.3 |
| 20260902130042 | 25 | 91 | 0.0 | 3.2 | 0.00 | 0.00 | 0.00 | 92 | 1015.5 |
| 20260902124548 | 25 | 38 | 0.0 | 6.4 | 0.00 | 0.00 | 0.00 | 92 | 1015.4 |
| 20260902123043 | 25 | 93 | 0.0 | 6.4 | 0.00 | 0.00 | 0.00 | 93 | 1015.2 |
| 20260902121538 | 24 | 90 | 0.0 | 3.2 | 0.00 | 0.00 | 0.00 | 93 | 1015.2 |
| 20260902120036 | 24 | 156 | 0.0 | 1.6 | 0.00 | 0.00 | 0.00 | 93 | 1015.2 |
| 20260902114537 | 24 | 119 | 0.0 | 1.6 | 0.00 | 0.00 | 0.00 | 92 | 1015.0 |
| 20260902113033 | 24 | 73 | 0.0 | 1.6 | 0.00 | 0.00 | 0.00 | 92 | 1015.0 |
| 20260902111540 | 24 | 106 | 0.0 | 6.4 | 0.00 | 0.00 | 0.00 | 92 | 1014.8 |
| 20260902110037 | 24 | 81 | 0.0 | 8.0 | 0.00 | 0.00 | 0.00 | 92 | 1014.7 |
| 20260902104539 | 24 | 69 | 1.6 | 8.0 | 0.00 | 0.00 | 0.00 | 91 | 1014.7 |
| 20260902103030 | 24 | 68 | 1.6 | 8.0 | 0.00 | 0.00 | 0.00 | 91 | 1014.5 |
| 20260902101538 | 25 | 80 | 3.2 | 8.0 | 0.00 | 0.00 | 0.00 | 91 | 1014.6 |
| 20260902100033 | 25 | 58 | 0.0 | 3.2 | 0.00 | 0.00 | 0.00 | 91 | 1014.5 |
| 20260902094524 | 25 | 126 | 0.0 | 6.4 | 0.00 | 0.00 | 0.00 | 91 | 1014.4 |
| 20260902093025 | 25 | 92 | 0.0 | 6.4 | 0.00 | 0.00 | 0.00 | 91 | 1014.4 |
| 20260902091539 | 25 | 81 | 0.0 | 6.4 | 0.00 | 0.00 | 0.00 | 91 | 1014.4 |